Time,TemperatureF,DewpointF,PressureIn,WindDirection,WindDirectionDegrees,WindSpeedMPH,WindSpeedGustMPH,Humidity,HourlyPrecipIn,Conditions,Clouds,dailyrainin,SoftwareType,DateUTC
2013-03-03 00:00:00,27.0,27.0,30.02,NW,315,1.0,9.0,100,0.00,,,0.00,Weather View 32 v70,2013-03-03 05:00:00,
2013-03-03 00:05:00,27.0,27.0,30.02,North,360,2.0,9.0,100,0.00,,,0.00,Weather View 32 v70,2013-03-03 05:05:00,
2013-03-03 00:10:00,27.0,27.0,30.02,NW,315,1.0,9.0,100,0.00,,,0.00,Weather View 32 v70,2013-03-03 05:10:00,
2013-03-03 00:15:00,27.0,27.0,30.02,NW,315,3.0,9.0,100,0.00,,,0.00,Weather View 32 v70,2013-03-03 05:15:00,
2013-03-03 00:20:00,27.0,27.0,30.02,NNW,337,5.0,9.0,100,0.00,,,0.00,Weather View 32 v70,2013-03-03 05:20:00,
2013-03-03 00:30:00,27.0,27.0,30.02,WNW,292,2.0,9.0,100,0.00,,,0.00,Weather View 32 v70,2013-03-03 05:30:00,
2013-03-03 00:35:00,27.0,27.0,30.02,NW,315,3.0,9.0,100,0.00,,,0.00,Weather View 32 v70,2013-03-03 05:35:00,
2013-03-03 00:40:00,27.0,27.0,30.02,North,360,2.0,9.0,100,0.00,,,0.00,Weather View 32 v70,2013-03-03 05:40:00,
2013-03-03 00:45:00,27.0,27.0,30.02,NW,315,2.0,9.0,100,0.00,,,0.00,Weather View 32 v70,2013-03-03 05:45:00,
2013-03-03 00:50:00,27.0,27.0,30.02,WNW,292,2.0,9.0,100,0.00,,,0.00,Weather View 32 v70,2013-03-03 05:50:00,
2013-03-03 01:00:00,27.0,27.0,30.02,NNW,337,3.0,9.0,100,0.00,,,0.00,Weather View 32 v70,2013-03-03 06:00:00,
2013-03-03 01:05:00,27.0,27.0,30.02,NW,315,1.0,9.0,100,0.00,,,0.00,Weather View 32 v70,2013-03-03 06:05:00,
2013-03-03 01:10:00,27.0,27.0,30.02,WNW,292,2.0,8.0,100,0.00,,,0.00,Weather View 32 v70,2013-03-03 06:10:00,
2013-03-03 01:20:00,27.0,27.0,30.02,NW,315,5.0,8.0,100,0.00,,,0.00,Weather View 32 v70,2013-03-03 06:20:00,
2013-03-03 01:25:00,27.0,27.0,30.02,West,270,1.0,8.0,100,0.00,,,0.00,Weather View 32 v70,2013-03-03 06:25:00,
2013-03-03 01:30:00,27.0,27.0,30.02,NW,315,6.0,8.0,100,0.00,,,0.00,Weather View 32 v70,2013-03-03 06:30:00,
2013-03-03 01:35:00,27.0,27.0,30.02,WNW,292,2.0,8.0,100,0.00,,,0.00,Weather View 32 v70,2013-03-03 06:35:00,
2013-03-03 01:40:00,27.0,27.0,30.02,NW,315,0.0,8.0,100,0.00,,,0.00,Weather View 32 v70,2013-03-03 06:40:00,
2013-03-03 01:45:00,27.0,27.0,30.03,West,270,4.0,8.0,100,0.00,,,0.00,Weather View 32 v70,2013-03-03 06:45:00,
2013-03-03 01:50:00,27.0,27.0,30.03,NW,315,2.0,8.0,100,0.00,,,0.00,Weather View 32 v70,2013-03-03 06:50:00,
2013-03-03 02:00:00,27.0,27.0,30.03,NW,315,2.0,8.0,100,0.00,,,0.00,Weather View 32 v70,2013-03-03 07:00:00,
2013-03-03 02:05:00,27.0,27.0,30.03,WNW,292,1.0,8.0,100,0.00,,,0.00,Weather View 32 v70,2013-03-03 07:05:00,
2013-03-03 02:10:00,27.0,27.0,30.03,WNW,292,2.0,8.0,100,0.00,,,0.00,Weather View 32 v70,2013-03-03 07:10:00,
2013-03-03 02:15:00,27.0,27.0,30.03,WNW,292,2.0,8.0,100,0.00,,,0.00,Weather View 32 v70,2013-03-03 07:15:00,
2013-03-03 02:20:00,26.0,26.0,30.03,WNW,292,0.0,8.0,100,0.00,,,0.00,Weather View 32 v70,2013-03-03 07:20:00,
2013-03-03 02:25:00,26.0,26.0,30.02,NW,315,5.0,8.0,100,0.00,,,0.00,Weather View 32 v70,2013-03-03 07:25:00,
2013-03-03 02:35:00,26.0,26.0,30.02,WNW,292,1.0,7.0,100,0.00,,,0.00,Weather View 32 v70,2013-03-03 07:35:00,
2013-03-03 02:40:00,26.0,26.0,30.02,WNW,292,2.0,7.0,100,0.00,,,0.00,Weather View 32 v70,2013-03-03 07:40:00,
2013-03-03 02:45:00,26.0,26.0,30.02,West,270,0.0,7.0,100,0.00,,,0.00,Weather View 32 v70,2013-03-03 07:45:00,
2013-03-03 02:50:00,26.0,26.0,30.02,WNW,292,1.0,7.0,100,0.00,,,0.00,Weather View 32 v70,2013-03-03 07:50:00,
2013-03-03 02:55:00,26.0,26.0,30.02,West,270,0.0,7.0,100,0.00,,,0.00,Weather View 32 v70,2013-03-03 07:55:00,
2013-03-03 03:00:00,26.0,26.0,30.02,WNW,292,3.0,7.0,100,0.00,,,0.00,Weather View 32 v70,2013-03-03 08:00:00,
2013-03-03 03:10:00,26.0,26.0,30.02,WNW,292,4.0,7.0,100,0.00,,,0.00,Weather View 32 v70,2013-03-03 08:10:00,
2013-03-03 03:15:00,26.0,26.0,30.02,West,270,2.0,7.0,100,0.00,,,0.00,Weather View 32 v70,2013-03-03 08:15:00,
2013-03-03 03:20:00,26.0,26.0,30.01,WNW,292,3.0,7.0,100,0.00,,,0.00,Weather View 32 v70,2013-03-03 08:20:00,
2013-03-03 03:25:00,26.0,26.0,30.01,North,360,1.0,7.0,100,0.00,,,0.00,Weather View 32 v70,2013-03-03 08:25:00,
2013-03-03 03:30:00,26.0,26.0,30.01,West,270,1.0,7.0,100,0.00,,,0.00,Weather View 32 v70,2013-03-03 08:30:00,
2013-03-03 03:40:00,26.0,26.0,30.01,WNW,292,3.0,7.0,100,0.00,,,0.00,Weather View 32 v70,2013-03-03 08:40:00,
2013-03-03 03:45:00,26.0,26.0,30.01,West,270,2.0,7.0,100,0.00,,,0.00,Weather View 32 v70,2013-03-03 08:45:00,
2013-03-03 03:50:00,26.0,26.0,30.01,WNW,292,4.0,7.0,100,0.00,,,0.00,Weather View 32 v70,2013-03-03 08:50:00,
2013-03-03 03:55:00,26.0,26.0,30.01,West,270,1.0,7.0,100,0.00,,,0.00,Weather View 32 v70,2013-03-03 08:55:00,
2013-03-03 04:00:00,26.0,26.0,30.01,WNW,292,2.0,7.0,100,0.00,,,0.00,Weather View 32 v70,2013-03-03 09:00:00,
2013-03-03 04:10:00,26.0,26.0,30.01,WNW,292,3.0,7.0,100,0.00,,,0.00,Weather View 32 v70,2013-03-03 09:10:00,
2013-03-03 04:15:00,26.0,26.0,30.01,WNW,292,4.0,7.0,100,0.00,,,0.00,Weather View 32 v70,2013-03-03 09:15:00,
2013-03-03 04:20:00,26.0,26.0,30.01,WNW,292,2.0,7.0,100,0.00,,,0.00,Weather View 32 v70,2013-03-03 09:20:00,
2013-03-03 04:25:00,25.0,25.0,30.01,WNW,292,2.0,7.0,100,0.00,,,0.00,Weather View 32 v70,2013-03-03 09:25:00,
2013-03-03 04:30:00,25.0,25.0,30.01,NNW,337,1.0,7.0,100,0.00,,,0.00,Weather View 32 v70,2013-03-03 09:30:00,
2013-03-03 04:35:00,25.0,25.0,30.00,NNW,337,1.0,7.0,100,0.00,,,0.00,Weather View 32 v70,2013-03-03 09:35:00,
2013-03-03 04:45:00,25.0,25.0,30.01,NW,315,2.0,7.0,100,0.00,,,0.00,Weather View 32 v70,2013-03-03 09:45:00,
2013-03-03 04:55:00,25.0,25.0,30.00,NNW,337,5.0,7.0,100,0.00,,,0.00,Weather View 32 v70,2013-03-03 09:55:00,
2013-03-03 05:00:00,25.0,25.0,30.00,NW,315,5.0,7.0,100,0.00,,,0.00,Weather View 32 v70,2013-03-03 10:00:00,
2013-03-03 05:05:00,25.0,25.0,30.00,NW,315,1.0,7.0,100,0.00,,,0.00,Weather View 32 v70,2013-03-03 10:05:00,
2013-03-03 05:10:00,25.0,25.0,30.00,WNW,292,1.0,7.0,100,0.00,,,0.00,Weather View 32 v70,2013-03-03 10:10:00,
2013-03-03 05:15:00,24.0,24.0,30.00,WNW,292,0.0,7.0,100,0.00,,,0.00,Weather View 32 v70,2013-03-03 10:15:00,
2013-03-03 05:20:00,24.0,24.0,30.00,NW,315,2.0,7.0,100,0.00,,,0.00,Weather View 32 v70,2013-03-03 10:20:00,
2013-03-03 05:25:00,24.0,24.0,30.00,NW,315,2.0,7.0,100,0.00,,,0.00,Weather View 32 v70,2013-03-03 10:25:00,
2013-03-03 05:30:00,24.0,24.0,30.00,NW,315,2.0,7.0,100,0.00,,,0.00,Weather View 32 v70,2013-03-03 10:30:00,
2013-03-03 05:40:00,23.0,23.0,30.00,NW,315,0.0,7.0,100,0.00,,,0.00,Weather View 32 v70,2013-03-03 10:40:00,
2013-03-03 05:45:00,23.0,23.0,30.00,NW,315,2.0,7.0,100,0.00,,,0.00,Weather View 32 v70,2013-03-03 10:45:00,
2013-03-03 05:50:00,23.0,23.0,30.00,WNW,292,2.0,7.0,100,0.00,,,0.00,Weather View 32 v70,2013-03-03 10:50:00,
2013-03-03 05:55:00,23.0,23.0,30.00,WNW,292,2.0,7.0,100,0.00,,,0.00,Weather View 32 v70,2013-03-03 10:55:00,
2013-03-03 06:05:00,23.0,23.0,30.00,WNW,292,1.0,6.0,100,0.00,,,0.00,Weather View 32 v70,2013-03-03 11:05:00,
2013-03-03 06:15:00,22.0,22.0,30.00,WNW,292,2.0,6.0,100,0.00,,,0.00,Weather View 32 v70,2013-03-03 11:15:00,
2013-03-03 06:25:00,22.0,22.0,30.00,WNW,292,0.0,6.0,100,0.00,,,0.00,Weather View 32 v70,2013-03-03 11:25:00,
2013-03-03 06:30:00,21.0,21.0,30.01,WNW,292,0.0,6.0,100,0.00,,,0.00,Weather View 32 v70,2013-03-03 11:30:00,
2013-03-03 06:35:00,21.0,21.0,30.01,WNW,292,0.0,6.0,100,0.00,,,0.00,Weather View 32 v70,2013-03-03 11:35:00,
2013-03-03 06:45:00,20.0,20.0,30.01,WNW,292,0.0,6.0,100,0.00,,,0.00,Weather View 32 v70,2013-03-03 11:45:00,
2013-03-03 06:50:00,20.0,20.0,30.01,WNW,292,1.0,6.0,100,0.00,,,0.00,Weather View 32 v70,2013-03-03 11:50:00,
2013-03-03 07:00:00,21.0,21.0,30.01,West,270,1.0,5.0,100,0.00,,,0.00,Weather View 32 v70,2013-03-03 12:00:00,
2013-03-03 07:05:00,21.0,21.0,30.01,West,270,1.0,4.0,100,0.00,,,0.00,Weather View 32 v70,2013-03-03 12:05:00,
2013-03-03 07:10:00,21.0,21.0,30.01,West,270,1.0,5.0,100,0.00,,,0.00,Weather View 32 v70,2013-03-03 12:10:00,
2013-03-03 07:15:00,21.0,21.0,30.00,West,270,3.0,5.0,100,0.00,,,0.00,Weather View 32 v70,2013-03-03 12:15:00,
2013-03-03 07:20:00,21.0,21.0,30.01,West,270,1.0,6.0,100,0.00,,,0.00,Weather View 32 v70,2013-03-03 12:20:00,
2013-03-03 07:30:00,21.0,21.0,30.01,WNW,292,2.0,6.0,100,0.00,,,0.00,Weather View 32 v70,2013-03-03 12:30:00,
2013-03-03 07:35:00,21.0,21.0,30.01,WNW,292,2.0,6.0,100,0.00,,,0.00,Weather View 32 v70,2013-03-03 12:35:00,
2013-03-03 07:40:00,21.0,21.0,30.01,West,270,3.0,6.0,100,0.00,,,0.00,Weather View 32 v70,2013-03-03 12:40:00,
2013-03-03 07:45:00,21.0,21.0,30.01,West,270,3.0,6.0,100,0.00,,,0.00,Weather View 32 v70,2013-03-03 12:45:00,
2013-03-03 07:50:00,21.0,21.0,30.02,West,270,1.0,6.0,100,0.00,,,0.00,Weather View 32 v70,2013-03-03 12:50:00,
2013-03-03 07:55:00,21.0,21.0,30.02,West,270,3.0,6.0,100,0.00,,,0.00,Weather View 32 v70,2013-03-03 12:55:00,
2013-03-03 08:00:00,22.0,22.0,30.02,WNW,292,2.0,6.0,100,0.00,,,0.00,Weather View 32 v70,2013-03-03 13:00:00,
2013-03-03 08:10:00,22.0,22.0,30.02,WNW,292,4.0,6.0,100,0.00,,,0.00,Weather View 32 v70,2013-03-03 13:10:00,
2013-03-03 08:15:00,22.0,22.0,30.03,West,270,3.0,6.0,100,0.00,,,0.00,Weather View 32 v70,2013-03-03 13:15:00,
2013-03-03 08:20:00,22.0,22.0,30.03,WNW,292,2.0,6.0,100,0.00,,,0.00,Weather View 32 v70,2013-03-03 13:20:00,
2013-03-03 08:25:00,22.0,22.0,30.03,West,270,3.0,6.0,100,0.00,,,0.00,Weather View 32 v70,2013-03-03 13:25:00,
2013-03-03 08:35:00,22.0,22.0,30.03,NW,315,1.0,6.0,100,0.00,,,0.00,Weather View 32 v70,2013-03-03 13:35:00,
2013-03-03 08:40:00,22.0,22.0,30.04,NW,315,5.0,6.0,100,0.00,,,0.00,Weather View 32 v70,2013-03-03 13:40:00,
2013-03-03 08:45:00,23.0,23.0,30.04,WNW,292,2.0,7.0,100,0.00,,,0.00,Weather View 32 v70,2013-03-03 13:45:00,
2013-03-03 08:50:00,23.0,23.0,30.04,West,270,6.0,8.0,100,0.00,,,0.00,Weather View 32 v70,2013-03-03 13:50:00,
2013-03-03 08:55:00,24.0,24.0,30.04,NW,315,2.0,8.0,100,0.00,,,0.00,Weather View 32 v70,2013-03-03 13:55:00,
2013-03-03 09:00:00,25.0,25.0,30.04,WSW,247,4.0,8.0,100,0.00,,,0.00,Weather View 32 v70,2013-03-03 14:00:00,
2013-03-03 09:05:00,25.0,25.0,30.05,West,270,6.0,8.0,100,0.00,,,0.00,Weather View 32 v70,2013-03-03 14:05:00,
2013-03-03 09:10:00,26.0,26.0,30.05,WSW,247,5.0,8.0,100,0.00,,,0.00,Weather View 32 v70,2013-03-03 14:10:00,
2013-03-03 09:17:00,27.0,27.0,30.05,NW,315,4.0,8.0,100,0.00,,,0.00,Weather View 32 v70,2013-03-03 14:17:00,
2013-03-03 09:25:00,27.0,27.0,30.04,NW,315,7.0,9.0,100,0.00,,,0.00,Weather View 32 v70,2013-03-03 14:25:00,
2013-03-03 09:30:00,28.0,28.0,30.05,West,270,3.0,9.0,100,0.00,,,0.00,Weather View 32 v70,2013-03-03 14:30:00,
2013-03-03 09:35:00,28.0,27.0,30.05,WSW,247,1.0,9.0,96,0.00,,,0.00,Weather View 32 v70,2013-03-03 14:35:00,
2013-03-03 09:45:00,29.0,26.2,30.05,WNW,292,4.0,9.0,89,0.00,,,0.00,Weather View 32 v70,2013-03-03 14:45:00,
2013-03-03 09:50:00,29.0,25.6,30.05,West,270,2.0,9.0,87,0.00,,,0.00,Weather View 32 v70,2013-03-03 14:50:00,
2013-03-03 09:55:00,30.0,26.6,30.05,NW,315,3.0,9.0,87,0.00,,,0.00,Weather View 32 v70,2013-03-03 14:55:00,
2013-03-03 10:00:00,30.0,25.5,30.05,WNW,292,3.0,9.0,83,0.00,,,0.00,Weather View 32 v70,2013-03-03 15:00:00,
2013-03-03 10:05:00,30.0,25.5,30.05,WNW,292,3.0,9.0,83,0.00,,,0.00,Weather View 32 v70,2013-03-03 15:05:00,
2013-03-03 10:10:00,31.0,27.9,30.05,SSW,202,1.0,9.0,88,0.00,,,0.00,Weather View 32 v70,2013-03-03 15:10:00,
2013-03-03 10:15:00,31.0,26.1,30.05,WNW,292,5.0,9.0,82,0.00,,,0.00,Weather View 32 v70,2013-03-03 15:15:00,
2013-03-03 10:20:00,32.0,28.3,30.05,SW,225,3.0,9.0,86,0.00,,,0.00,Weather View 32 v70,2013-03-03 15:20:00,
2013-03-03 10:30:00,33.0,28.1,30.05,WSW,247,1.0,9.0,82,0.00,,,0.00,Weather View 32 v70,2013-03-03 15:30:00,
2013-03-03 10:35:00,33.0,27.2,30.05,North,360,5.0,9.0,79,0.00,,,0.00,Weather View 32 v70,2013-03-03 15:35:00,
2013-03-03 10:40:00,34.0,28.2,30.05,WSW,247,0.0,9.0,79,0.00,,,0.00,Weather View 32 v70,2013-03-03 15:40:00,
2013-03-03 10:45:00,35.0,27.9,30.05,West,270,6.0,9.0,75,0.00,,,0.00,Weather View 32 v70,2013-03-03 15:45:00,
2013-03-03 10:50:00,35.0,27.2,30.05,SSW,202,1.0,9.0,73,0.00,,,0.00,Weather View 32 v70,2013-03-03 15:50:00,
2013-03-03 10:55:00,35.0,28.2,30.05,NW,315,3.0,9.0,76,0.00,,,0.00,Weather View 32 v70,2013-03-03 15:55:00,
2013-03-03 11:00:00,35.0,24.4,30.05,West,270,2.0,9.0,65,0.00,,,0.00,Weather View 32 v70,2013-03-03 16:00:00,
2013-03-03 11:05:00,35.0,25.9,30.05,WNW,292,6.0,9.0,69,0.00,,,0.00,Weather View 32 v70,2013-03-03 16:05:00,
2013-03-03 11:10:00,35.0,25.5,30.05,West,270,7.0,9.0,68,0.00,,,0.00,Weather View 32 v70,2013-03-03 16:10:00,
2013-03-03 11:18:00,36.0,25.4,30.05,North,360,4.0,10.0,65,0.00,,,0.00,Weather View 32 v70,2013-03-03 16:18:00,
2013-03-03 11:25:00,34.0,23.1,30.05,WNW,292,9.0,10.0,64,0.00,,,0.00,Weather View 32 v70,2013-03-03 16:25:00,
2013-03-03 11:30:00,34.0,25.2,30.05,NNW,337,3.0,10.0,70,0.00,,,0.00,Weather View 32 v70,2013-03-03 16:30:00,
2013-03-03 11:35:00,35.0,23.7,30.04,NW,315,0.0,10.0,63,0.00,,,0.00,Weather View 32 v70,2013-03-03 16:35:00,
2013-03-03 11:40:00,35.0,24.4,30.04,NW,315,3.0,10.0,65,0.00,,,0.00,Weather View 32 v70,2013-03-03 16:40:00,
2013-03-03 11:45:00,35.0,23.3,30.04,North,360,7.0,10.0,62,0.00,,,0.00,Weather View 32 v70,2013-03-03 16:45:00,
2013-03-03 11:50:00,34.0,22.3,30.04,WNW,292,1.0,10.0,62,0.00,,,0.00,Weather View 32 v70,2013-03-03 16:50:00,
2013-03-03 11:55:00,35.0,24.4,30.05,WSW,247,2.0,10.0,65,0.00,,,0.00,Weather View 32 v70,2013-03-03 16:55:00,
2013-03-03 12:00:00,36.0,26.8,30.05,North,360,0.0,10.0,69,0.00,,,0.00,Weather View 32 v70,2013-03-03 17:00:00,
2013-03-03 12:05:00,37.0,23.2,30.05,WNW,292,5.0,10.0,57,0.00,,,0.00,Weather View 32 v70,2013-03-03 17:05:00,
2013-03-03 12:10:00,37.0,24.4,30.05,WSW,247,3.0,11.0,60,0.00,,,0.00,Weather View 32 v70,2013-03-03 17:10:00,
2013-03-03 12:19:00,36.0,21.4,30.05,West,270,7.0,11.0,55,0.00,,,0.00,Weather View 32 v70,2013-03-03 17:19:00,
2013-03-03 12:25:00,37.0,24.4,30.04,WSW,247,6.0,12.0,60,0.00,,,0.00,Weather View 32 v70,2013-03-03 17:25:00,
2013-03-03 12:30:00,38.0,24.9,30.04,West,270,6.0,12.0,59,0.00,,,0.00,Weather View 32 v70,2013-03-03 17:30:00,
2013-03-03 12:35:00,38.0,24.1,30.04,North,360,9.0,12.0,57,0.00,,,0.00,Weather View 32 v70,2013-03-03 17:35:00,
2013-03-03 12:40:00,38.0,24.1,30.04,NNW,337,7.0,12.0,57,0.00,,,0.00,Weather View 32 v70,2013-03-03 17:40:00,
2013-03-03 12:50:00,37.0,24.8,30.03,North,360,4.0,12.0,61,0.00,,,0.00,Weather View 32 v70,2013-03-03 17:50:00,
2013-03-03 12:55:00,37.0,23.6,30.03,NE,45,6.0,12.0,58,0.00,,,0.00,Weather View 32 v70,2013-03-03 17:55:00,
2013-03-03 13:00:00,36.0,21.8,30.03,WNW,292,6.0,12.0,56,0.00,,,0.00,Weather View 32 v70,2013-03-03 18:00:00,
2013-03-03 13:05:00,35.0,24.0,30.03,WNW,292,7.0,12.0,64,0.00,,,0.00,Weather View 32 v70,2013-03-03 18:05:00,
2013-03-03 13:15:00,36.0,24.2,30.02,NNW,337,2.0,12.0,62,0.00,,,0.00,Weather View 32 v70,2013-03-03 18:15:00,
2013-03-03 13:20:00,36.0,23.0,30.02,North,360,3.0,12.0,59,0.00,,,0.00,Weather View 32 v70,2013-03-03 18:20:00,
2013-03-03 13:25:00,36.0,23.8,30.02,NW,315,6.0,10.0,61,0.00,,,0.00,Weather View 32 v70,2013-03-03 18:25:00,
2013-03-03 13:30:00,37.0,24.8,30.02,NNW,337,2.0,10.0,61,0.00,,,0.00,Weather View 32 v70,2013-03-03 18:30:00,
2013-03-03 13:35:00,37.0,23.6,30.02,West,270,5.0,10.0,58,0.00,,,0.00,Weather View 32 v70,2013-03-03 18:35:00,
2013-03-03 13:40:00,37.0,21.9,30.01,NW,315,7.0,10.0,54,0.00,,,0.00,Weather View 32 v70,2013-03-03 18:40:00,
2013-03-03 13:50:00,38.0,24.9,30.01,NW,315,3.0,10.0,59,0.00,,,0.00,Weather View 32 v70,2013-03-03 18:50:00,
2013-03-03 13:55:00,38.0,21.5,30.01,SW,225,5.0,10.0,51,0.00,,,0.00,Weather View 32 v70,2013-03-03 18:55:00,
2013-03-03 14:00:00,39.0,22.4,30.01,SW,225,2.0,10.0,51,0.00,,,0.00,Weather View 32 v70,2013-03-03 19:00:00,
2013-03-03 14:05:00,39.0,23.7,30.01,West,270,3.0,10.0,54,0.00,,,0.00,Weather View 32 v70,2013-03-03 19:05:00,
2013-03-03 14:10:00,40.0,24.7,30.01,SW,225,1.0,9.0,54,0.00,,,0.00,Weather View 32 v70,2013-03-03 19:10:00,
2013-03-03 14:15:00,40.0,23.8,30.01,WNW,292,1.0,9.0,52,0.00,,,0.00,Weather View 32 v70,2013-03-03 19:15:00,
2013-03-03 14:25:00,40.0,21.4,30.01,West,270,3.0,9.0,47,0.00,,,0.00,Weather View 32 v70,2013-03-03 19:25:00,
2013-03-03 14:30:00,40.0,20.9,30.01,WNW,292,4.0,9.0,46,0.00,,,0.00,Weather View 32 v70,2013-03-03 19:30:00,
2013-03-03 14:35:00,40.0,24.2,30.01,NW,315,5.0,9.0,53,0.00,,,0.00,Weather View 32 v70,2013-03-03 19:35:00,
2013-03-03 14:40:00,41.0,23.3,30.01,West,270,3.0,9.0,49,0.00,,,0.00,Weather View 32 v70,2013-03-03 19:40:00,
2013-03-03 14:45:00,40.0,21.4,30.01,West,270,4.0,9.0,47,0.00,,,0.00,Weather View 32 v70,2013-03-03 19:45:00,
2013-03-03 14:50:00,40.0,22.8,30.01,West,270,9.0,11.0,50,0.00,,,0.00,Weather View 32 v70,2013-03-03 19:50:00,
2013-03-03 14:55:00,41.0,24.2,30.01,SW,225,4.0,11.0,51,0.00,,,0.00,Weather View 32 v70,2013-03-03 19:55:00,
2013-03-03 15:05:00,41.0,21.8,30.01,SW,225,4.0,11.0,46,0.00,,,0.00,Weather View 32 v70,2013-03-03 20:05:00,
2013-03-03 15:10:00,41.0,21.3,30.01,NE,45,5.0,11.0,45,0.00,,,0.00,Weather View 32 v70,2013-03-03 20:10:00,
2013-03-03 15:20:00,41.0,21.8,30.01,WSW,247,3.0,11.0,46,0.00,,,0.00,Weather View 32 v70,2013-03-03 20:20:00,
2013-03-03 15:25:00,41.0,21.8,30.01,SW,225,3.0,11.0,46,0.00,,,0.00,Weather View 32 v70,2013-03-03 20:25:00,
2013-03-03 15:30:00,40.0,19.8,30.01,WNW,292,2.0,11.0,44,0.00,,,0.00,Weather View 32 v70,2013-03-03 20:30:00,
2013-03-03 15:35:00,40.0,20.3,30.01,WSW,247,6.0,11.0,45,0.00,,,0.00,Weather View 32 v70,2013-03-03 20:35:00,
2013-03-03 15:40:00,40.0,19.8,30.01,West,270,1.0,11.0,44,0.00,,,0.00,Weather View 32 v70,2013-03-03 20:40:00,
2013-03-03 15:45:00,40.0,20.9,30.01,NNW,337,3.0,12.0,46,0.00,,,0.00,Weather View 32 v70,2013-03-03 20:45:00,
2013-03-03 15:50:00,39.0,17.8,30.01,West,270,8.0,12.0,42,0.00,,,0.00,Weather View 32 v70,2013-03-03 20:50:00,
2013-03-03 16:00:00,40.0,20.9,30.00,WSW,247,4.0,12.0,46,0.00,,,0.00,Weather View 32 v70,2013-03-03 21:00:00,
2013-03-03 16:05:00,39.0,17.3,30.00,WSW,247,2.0,12.0,41,0.00,,,0.00,Weather View 32 v70,2013-03-03 21:05:00,
2013-03-03 16:15:00,39.0,18.9,30.00,NW,315,2.0,12.0,44,0.00,,,0.00,Weather View 32 v70,2013-03-03 21:15:00,
2013-03-03 16:20:00,39.0,18.4,30.00,West,270,6.0,12.0,43,0.00,,,0.00,Weather View 32 v70,2013-03-03 21:20:00,
2013-03-03 16:25:00,39.0,17.3,30.00,West,270,4.0,12.0,41,0.00,,,0.00,Weather View 32 v70,2013-03-03 21:25:00,
2013-03-03 16:30:00,39.0,18.4,30.00,West,270,2.0,12.0,43,0.00,,,0.00,Weather View 32 v70,2013-03-03 21:30:00,
2013-03-03 16:35:00,39.0,18.4,30.00,WNW,292,5.0,12.0,43,0.00,,,0.00,Weather View 32 v70,2013-03-03 21:35:00,
2013-03-03 16:45:00,38.0,18.5,30.00,WSW,247,7.0,12.0,45,0.00,,,0.00,Weather View 32 v70,2013-03-03 21:45:00,
2013-03-03 16:50:00,38.0,16.4,30.00,WSW,247,3.0,12.0,41,0.00,,,0.00,Weather View 32 v70,2013-03-03 21:50:00,
2013-03-03 16:55:00,38.0,19.0,30.00,NW,315,5.0,12.0,46,0.00,,,0.00,Weather View 32 v70,2013-03-03 21:55:00,
2013-03-03 17:00:00,38.0,18.0,30.00,NW,315,7.0,12.0,44,0.00,,,0.00,Weather View 32 v70,2013-03-03 22:00:00,
2013-03-03 17:05:00,38.0,19.0,30.00,WNW,292,2.0,12.0,46,0.00,,,0.00,Weather View 32 v70,2013-03-03 22:05:00,
2013-03-03 17:15:00,37.0,16.6,29.99,WNW,292,2.0,12.0,43,0.00,,,0.00,Weather View 32 v70,2013-03-03 22:15:00,
2013-03-03 17:20:00,37.0,17.6,29.99,West,270,3.0,12.0,45,0.00,,,0.00,Weather View 32 v70,2013-03-03 22:20:00,
2013-03-03 17:25:00,37.0,18.1,29.99,West,270,7.0,12.0,46,0.00,,,0.00,Weather View 32 v70,2013-03-03 22:25:00,
2013-03-03 17:30:00,37.0,17.1,29.99,NNW,337,6.0,12.0,44,0.00,,,0.00,Weather View 32 v70,2013-03-03 22:30:00,
2013-03-03 17:40:00,37.0,19.6,29.99,West,270,5.0,12.0,49,0.00,,,0.00,Weather View 32 v70,2013-03-03 22:40:00,
2013-03-03 17:45:00,37.0,19.1,29.99,NW,315,6.0,12.0,48,0.00,,,0.00,Weather View 32 v70,2013-03-03 22:45:00,
2013-03-03 17:50:00,37.0,18.1,29.99,West,270,0.0,11.0,46,0.00,,,0.00,Weather View 32 v70,2013-03-03 22:50:00,
2013-03-03 17:55:00,37.0,17.6,29.99,NW,315,3.0,11.0,45,0.00,,,0.00,Weather View 32 v70,2013-03-03 22:55:00,
2013-03-03 18:00:00,37.0,18.6,29.99,West,270,3.0,11.0,47,0.00,,,0.00,Weather View 32 v70,2013-03-03 23:00:00,
2013-03-03 18:10:00,36.0,17.2,29.99,WNW,292,6.0,10.0,46,0.00,,,0.00,Weather View 32 v70,2013-03-03 23:10:00,
2013-03-03 18:15:00,36.0,17.2,29.99,West,270,3.0,10.0,46,0.00,,,0.00,Weather View 32 v70,2013-03-03 23:15:00,
2013-03-03 18:20:00,35.0,16.3,29.99,WSW,247,3.0,10.0,46,0.00,,,0.00,Weather View 32 v70,2013-03-03 23:20:00,
2013-03-03 18:30:00,34.0,16.8,29.99,WNW,292,4.0,10.0,49,0.00,,,0.00,Weather View 32 v70,2013-03-03 23:30:00,
2013-03-03 18:35:00,34.0,17.3,29.99,West,270,5.0,10.0,50,0.00,,,0.00,Weather View 32 v70,2013-03-03 23:35:00,
2013-03-03 18:40:00,34.0,17.8,29.99,West,270,5.0,10.0,51,0.00,,,0.00,Weather View 32 v70,2013-03-03 23:40:00,
2013-03-03 18:45:00,33.0,17.3,29.99,West,270,3.0,10.0,52,0.00,,,0.00,Weather View 32 v70,2013-03-03 23:45:00,
2013-03-03 18:50:00,33.0,18.2,29.99,West,270,1.0,10.0,54,0.00,,,0.00,Weather View 32 v70,2013-03-03 23:50:00,
2013-03-03 18:55:00,32.0,18.5,29.99,West,270,2.0,10.0,57,0.00,,,0.00,Weather View 32 v70,2013-03-03 23:55:00,
2013-03-03 19:05:00,32.0,18.9,29.99,West,270,4.0,9.0,58,0.00,,,0.00,Weather View 32 v70,2013-03-04 00:05:00,
2013-03-03 19:10:00,32.0,18.9,29.99,West,270,2.0,9.0,58,0.00,,,0.00,Weather View 32 v70,2013-03-04 00:10:00,
2013-03-03 19:15:00,31.0,18.3,29.99,West,270,1.0,8.0,59,0.00,,,0.00,Weather View 32 v70,2013-03-04 00:15:00,
2013-03-03 19:20:00,31.0,18.7,29.99,West,270,0.0,8.0,60,0.00,,,0.00,Weather View 32 v70,2013-03-04 00:20:00,
2013-03-03 19:25:00,30.0,18.2,29.99,West,270,0.0,8.0,61,0.00,,,0.00,Weather View 32 v70,2013-03-04 00:25:00,
2013-03-03 19:30:00,30.0,18.9,29.99,West,270,0.0,8.0,63,0.00,,,0.00,Weather View 32 v70,2013-03-04 00:30:00,
2013-03-03 19:35:00,29.0,18.3,29.99,West,270,1.0,7.0,64,0.00,,,0.00,Weather View 32 v70,2013-03-04 00:35:00,
2013-03-03 19:45:00,29.0,18.7,29.99,West,270,0.0,7.0,65,0.00,,,0.00,Weather View 32 v70,2013-03-04 00:45:00,
2013-03-03 19:50:00,28.0,18.1,29.99,West,270,0.0,7.0,66,0.00,,,0.00,Weather View 32 v70,2013-03-04 00:50:00,
2013-03-03 19:55:00,27.0,18.2,29.99,West,270,0.0,7.0,69,0.00,,,0.00,Weather View 32 v70,2013-03-04 00:55:00,
2013-03-03 20:00:00,27.0,18.9,29.99,West,270,0.0,7.0,71,0.00,,,0.00,Weather View 32 v70,2013-03-04 01:00:00,
2013-03-03 20:05:00,26.0,18.2,30.00,West,270,0.0,6.0,72,0.00,,,0.00,Weather View 32 v70,2013-03-04 01:05:00,
2013-03-03 20:10:00,26.0,18.2,30.00,West,270,0.0,3.0,72,0.00,,,0.00,Weather View 32 v70,2013-03-04 01:10:00,
2013-03-03 20:15:00,26.0,18.2,29.99,West,270,0.0,3.0,72,0.00,,,0.00,Weather View 32 v70,2013-03-04 01:15:00,
2013-03-03 20:23:00,25.0,17.9,29.99,West,270,0.0,3.0,74,0.00,,,0.00,Weather View 32 v70,2013-03-04 01:23:00,
2013-03-03 20:30:00,24.0,18.1,29.99,West,270,0.0,3.0,78,0.00,,,0.00,Weather View 32 v70,2013-03-04 01:30:00,
2013-03-03 20:35:00,24.0,19.3,29.99,West,270,0.0,2.0,82,0.00,,,0.00,Weather View 32 v70,2013-03-04 01:35:00,
2013-03-03 20:40:00,24.0,21.0,29.99,West,270,0.0,1.0,88,0.00,,,0.00,Weather View 32 v70,2013-03-04 01:40:00,
2013-03-03 20:45:00,24.0,20.4,29.99,West,270,0.0,1.0,86,0.00,,,0.00,Weather View 32 v70,2013-03-04 01:45:00,
2013-03-03 20:50:00,24.0,19.6,29.99,West,270,0.0,1.0,83,0.00,,,0.00,Weather View 32 v70,2013-03-04 01:50:00,
2013-03-03 20:55:00,24.0,19.3,30.00,West,270,0.0,1.0,82,0.00,,,0.00,Weather View 32 v70,2013-03-04 01:55:00,
2013-03-03 21:05:00,24.0,20.7,30.00,West,270,0.0,1.0,87,0.00,,,0.00,Weather View 32 v70,2013-03-04 02:05:00,
2013-03-03 21:10:00,24.0,20.7,29.99,West,270,0.0,0.0,87,0.00,,,0.00,Weather View 32 v70,2013-03-04 02:10:00,
2013-03-03 21:15:00,24.0,21.5,29.99,West,270,0.0,0.0,90,0.00,,,0.00,Weather View 32 v70,2013-03-04 02:15:00,
2013-03-03 21:20:00,23.0,20.5,29.99,West,270,0.0,0.0,90,0.00,,,0.00,Weather View 32 v70,2013-03-04 02:20:00,
2013-03-03 21:25:00,23.0,20.8,29.99,West,270,0.0,0.0,91,0.00,,,0.00,Weather View 32 v70,2013-03-04 02:25:00,
2013-03-03 21:35:00,23.0,21.3,29.99,West,270,0.0,0.0,93,0.00,,,0.00,Weather View 32 v70,2013-03-04 02:35:00,
2013-03-03 21:40:00,23.0,21.8,29.99,West,270,0.0,0.0,95,0.00,,,0.00,Weather View 32 v70,2013-03-04 02:40:00,
2013-03-03 21:45:00,23.0,21.8,29.99,West,270,0.0,0.0,95,0.00,,,0.00,Weather View 32 v70,2013-03-04 02:45:00,
2013-03-03 21:50:00,23.0,21.5,29.99,West,270,0.0,0.0,94,0.00,,,0.00,Weather View 32 v70,2013-03-04 02:50:00,
2013-03-03 21:55:00,23.0,21.5,29.99,West,270,0.0,0.0,94,0.00,,,0.00,Weather View 32 v70,2013-03-04 02:55:00,
2013-03-03 22:05:00,22.0,21.5,29.99,West,270,0.0,0.0,98,0.00,,,0.00,Weather View 32 v70,2013-03-04 03:05:00,
2013-03-03 22:10:00,21.0,20.8,30.00,West,270,0.0,0.0,99,0.00,,,0.00,Weather View 32 v70,2013-03-04 03:10:00,
2013-03-03 22:15:00,22.0,22.0,29.98,West,270,0.0,0.0,100,0.00,,,0.00,Weather View 32 v70,2013-03-04 03:15:00,
2013-03-03 22:20:00,22.0,21.8,29.98,West,270,0.0,0.0,99,0.00,,,0.00,Weather View 32 v70,2013-03-04 03:20:00,
2013-03-03 22:30:00,22.0,22.0,29.98,West,270,0.0,0.0,100,0.00,,,0.00,Weather View 32 v70,2013-03-04 03:30:00,
2013-03-03 22:40:00,22.0,22.0,29.99,West,270,0.0,0.0,100,0.00,,,0.00,Weather View 32 v70,2013-03-04 03:40:00,
2013-03-03 22:45:00,22.0,22.0,30.00,West,270,0.0,0.0,100,0.00,,,0.00,Weather View 32 v70,2013-03-04 03:45:00,
2013-03-03 22:50:00,21.0,21.0,29.99,West,270,0.0,0.0,100,0.00,,,0.00,Weather View 32 v70,2013-03-04 03:50:00,
2013-03-03 23:00:00,20.0,20.0,30.00,West,270,0.0,0.0,100,0.00,,,0.00,Weather View 32 v70,2013-03-04 04:00:00,
2013-03-03 23:05:00,20.0,20.0,30.00,West,270,0.0,0.0,100,0.00,,,0.00,Weather View 32 v70,2013-03-04 04:05:00,
2013-03-03 23:10:00,20.0,20.0,29.99,West,270,0.0,0.0,100,0.00,,,0.00,Weather View 32 v70,2013-03-04 04:10:00,
2013-03-03 23:15:00,20.0,20.0,30.00,West,270,0.0,0.0,100,0.00,,,0.00,Weather View 32 v70,2013-03-04 04:15:00,
2013-03-03 23:20:00,21.0,21.0,30.00,West,270,0.0,0.0,100,0.00,,,0.00,Weather View 32 v70,2013-03-04 04:20:00,
2013-03-03 23:25:00,20.0,20.0,30.00,West,270,0.0,0.0,100,0.00,,,0.00,Weather View 32 v70,2013-03-04 04:25:00,
2013-03-03 23:35:00,20.0,20.0,29.99,West,270,0.0,0.0,100,0.00,,,0.00,Weather View 32 v70,2013-03-04 04:35:00,
2013-03-03 23:40:00,19.0,19.0,29.99,West,270,0.0,0.0,100,0.00,,,0.00,Weather View 32 v70,2013-03-04 04:40:00,
2013-03-03 23:45:00,19.0,19.0,29.99,West,270,0.0,0.0,100,0.00,,,0.00,Weather View 32 v70,2013-03-04 04:45:00,
2013-03-03 23:50:00,19.0,19.0,30.00,West,270,0.0,0.0,100,0.00,,,0.00,Weather View 32 v70,2013-03-04 04:50:00,
2013-03-03 23:55:00,20.0,20.0,30.00,West,270,0.0,0.0,100,0.00,,,0.00,Weather View 32 v70,2013-03-04 04:55:00,